BBG696 LLBG-LGRP

Flight info

Callsign BBG696
Flight time 1h 16m
Altitude 38000
Route SUVAS N128 FOXLI
Aircraft B738/M-SDE2E3FGHIRWXY/LB1

Departure

Time 2026-05-01 12:39
Airport Ben Gurion International Airport (LLBG)

Arrival

Time 2026-05-01 13:56
Airport Rhodes International Airport "Diagoras" (LGRP)
Time Latitude Longitude Altitude Speed Heading
2026-05-01 12:39 32.04747 34.51204 11140 ft 356 kts 285°
2026-05-01 12:39 32.05418 34.48372 11715 ft 361 kts 285°
2026-05-01 12:40 32.06102 34.45478 12422 ft 363 kts 285°
2026-05-01 12:40 32.06770 34.42645 13128 ft 364 kts 285°
2026-05-01 12:40 32.07450 34.39762 13786 ft 367 kts 285°
2026-05-01 12:40 32.08134 34.36853 14481 ft 369 kts 285°
2026-05-01 12:41 32.08824 34.33919 15141 ft 373 kts 285°
2026-05-01 12:41 32.09516 34.30969 15831 ft 375 kts 285°
2026-05-01 12:41 32.10212 34.27999 16506 ft 377 kts 284°
2026-05-01 12:41 32.10914 34.25003 17137 ft 380 kts 284°
2026-05-01 12:42 32.11619 34.21988 17763 ft 383 kts 284°
2026-05-01 12:42 32.12328 34.18954 18370 ft 385 kts 284°
2026-05-01 12:42 32.13043 34.15894 18956 ft 388 kts 284°
2026-05-01 12:42 32.13759 34.12819 19560 ft 389 kts 284°
2026-05-01 12:43 32.14480 34.09726 20120 ft 392 kts 284°
2026-05-01 12:43 32.14651 34.08990 20256 ft 393 kts 284°
2026-05-01 12:43 32.15375 34.05876 20841 ft 394 kts 284°
2026-05-01 12:43 32.16104 34.02745 21367 ft 396 kts 285°
2026-05-01 12:44 32.17044 33.99677 21851 ft 400 kts 292°
2026-05-01 12:44 32.18355 33.96764 22353 ft 404 kts 301°
2026-05-01 12:44 32.21633 33.91336 23265 ft 408 kts 303°
2026-05-01 12:45 32.24976 33.85869 24115 ft 412 kts 303°
2026-05-01 12:45 32.26651 33.83110 24516 ft 414 kts 303°
2026-05-01 12:45 32.28330 33.80331 24876 ft 416 kts 303°
2026-05-01 12:46 32.30014 33.77536 25249 ft 418 kts 303°
2026-05-01 12:46 32.31704 33.74725 25621 ft 420 kts 303°
2026-05-01 12:46 32.33396 33.71904 25994 ft 422 kts 303°
2026-05-01 12:46 32.35096 33.69068 26334 ft 424 kts 303°
2026-05-01 12:47 32.36804 33.66217 26639 ft 426 kts 303°
2026-05-01 12:47 32.38521 33.63348 26973 ft 427 kts 303°
2026-05-01 12:47 32.40239 33.60476 27302 ft 429 kts 303°
2026-05-01 12:47 32.41966 33.57587 27593 ft 431 kts 303°
2026-05-01 12:48 32.43698 33.54688 27900 ft 432 kts 303°
2026-05-01 12:48 32.45435 33.51778 28206 ft 433 kts 303°
2026-05-01 12:48 32.47174 33.48862 28512 ft 434 kts 303°
2026-05-01 12:48 32.48916 33.45938 28876 ft 434 kts 303°
2026-05-01 12:49 32.50650 33.43028 29296 ft 431 kts 303°
2026-05-01 12:49 32.52374 33.40132 29757 ft 429 kts 303°
2026-05-01 12:49 32.54089 33.37249 30173 ft 427 kts 303°
2026-05-01 12:49 32.55796 33.34376 30574 ft 426 kts 303°
2026-05-01 12:50 32.57496 33.31512 31001 ft 424 kts 303°
2026-05-01 12:50 32.59188 33.28661 31423 ft 421 kts 303°
2026-05-01 12:50 32.60868 33.25826 31829 ft 419 kts 303°
2026-05-01 12:50 32.62541 33.23001 32217 ft 418 kts 303°
2026-05-01 12:51 32.64208 33.20185 32598 ft 416 kts 303°
2026-05-01 12:51 32.65867 33.17380 32935 ft 415 kts 303°
2026-05-01 12:51 32.69164 33.11799 33674 ft 411 kts 303°
2026-05-01 12:52 32.70803 33.09022 33989 ft 410 kts 303°
2026-05-01 12:52 32.74066 33.03485 34597 ft 409 kts 302°
2026-05-01 12:52 32.75693 33.00720 34916 ft 407 kts 302°
2026-05-01 12:53 32.78932 32.95212 35481 ft 406 kts 302°
2026-05-01 12:53 32.80545 32.92467 35757 ft 405 kts 302°
2026-05-01 12:53 32.82154 32.89727 36037 ft 404 kts 302°
2026-05-01 12:54 32.83760 32.86991 36304 ft 403 kts 302°
2026-05-01 12:54 32.86967 32.81517 36718 ft 404 kts 302°
2026-05-01 12:54 32.88569 32.78782 36986 ft 402 kts 302°
2026-05-01 12:55 32.91755 32.73333 37432 ft 401 kts 302°
2026-05-01 12:55 32.93348 32.70606 37621 ft 401 kts 302°
2026-05-01 12:55 32.94936 32.67883 37862 ft 400 kts 302°
2026-05-01 12:56 32.96524 32.65160 37973 ft 401 kts 302°
2026-05-01 12:56 32.99712 32.59687 37971 ft 401 kts 302°
2026-05-01 12:57 33.02869 32.54263 37979 ft 396 kts 302°
2026-05-01 12:57 33.07538 32.46220 37976 ft 391 kts 302°
2026-05-01 12:58 33.10619 32.40902 37986 ft 389 kts 302°
2026-05-01 12:59 33.15225 32.32944 37978 ft 389 kts 302°
2026-05-01 12:59 33.19812 32.24997 37982 ft 390 kts 301°
2026-05-01 13:00 33.24437 32.16968 37984 ft 392 kts 301°
2026-05-01 13:01 33.29072 32.08907 37983 ft 392 kts 301°
2026-05-01 13:02 33.33702 32.00835 37980 ft 392 kts 301°
2026-05-01 13:07 33.67106 31.42106 37981 ft 386 kts 301°
2026-05-01 13:08 33.70114 31.36772 37982 ft 386 kts 301°
2026-05-01 13:08 33.73100 31.31470 37981 ft 386 kts 301°
2026-05-01 13:09 33.76103 31.26127 37967 ft 386 kts 301°
2026-05-01 13:09 33.79105 31.20782 37964 ft 386 kts 301°
2026-05-01 13:10 33.82110 31.15424 37977 ft 387 kts 301°
2026-05-01 13:10 33.84628 31.10925 37978 ft 387 kts 301°
2026-05-01 13:11 33.87634 31.05550 37976 ft 387 kts 301°
2026-05-01 13:11 33.90636 31.00171 37974 ft 387 kts 301°
2026-05-01 13:12 33.93642 30.94782 37978 ft 387 kts 301°
2026-05-01 13:12 33.96639 30.89398 37963 ft 387 kts 301°
2026-05-01 13:13 33.99627 30.84017 37963 ft 386 kts 301°
2026-05-01 13:13 34.02613 30.78632 37980 ft 386 kts 300°
2026-05-01 13:14 34.05592 30.73251 37962 ft 385 kts 300°
2026-05-01 13:14 34.08562 30.67879 37976 ft 385 kts 300°
2026-05-01 13:15 34.11506 30.62545 37978 ft 384 kts 300°
2026-05-01 13:15 34.14464 30.57178 37964 ft 384 kts 300°
2026-05-01 13:16 34.17421 30.51804 37953 ft 384 kts 300°
2026-05-01 13:16 34.20378 30.46421 37954 ft 384 kts 300°
2026-05-01 13:17 34.26283 30.35652 37953 ft 384 kts 300°
2026-05-01 13:18 34.30707 30.27560 37959 ft 385 kts 300°
2026-05-01 13:18 34.33656 30.22154 37949 ft 385 kts 300°
2026-05-01 13:19 34.36604 30.16746 37958 ft 385 kts 300°
2026-05-01 13:20 34.41018 30.08629 37956 ft 385 kts 300°
2026-05-01 13:20 34.43957 30.03217 37954 ft 385 kts 300°
2026-05-01 13:21 34.49109 29.95720 37950 ft 390 kts 310°
2026-05-01 13:21 34.52932 29.91060 37957 ft 389 kts 310°
2026-05-01 13:22 34.56741 29.86387 37951 ft 389 kts 309°
2026-05-01 13:22 34.60530 29.81711 37956 ft 389 kts 309°
2026-05-01 13:23 34.64316 29.77025 37948 ft 389 kts 309°
2026-05-01 13:23 34.68103 29.72329 37952 ft 389 kts 309°
2026-05-01 13:24 34.71887 29.67631 37942 ft 389 kts 309°
2026-05-01 13:25 34.77554 29.60585 37947 ft 388 kts 309°
2026-05-01 13:25 34.81324 29.55889 37940 ft 387 kts 309°
2026-05-01 13:26 34.85085 29.51197 37940 ft 387 kts 309°
2026-05-01 13:26 34.88839 29.46505 37940 ft 387 kts 309°
2026-05-01 13:27 34.92596 29.41806 37945 ft 387 kts 309°
2026-05-01 13:27 34.98186 29.34806 37845 ft 373 kts 309°
2026-05-01 13:28 35.02171 29.30704 36494 ft 383 kts 317°
2026-05-01 13:28 35.04331 29.28749 35637 ft 390 kts 317°
2026-05-01 13:29 35.08754 29.24754 33911 ft 400 kts 317°
2026-05-01 13:29 35.13266 29.20655 32229 ft 407 kts 317°
2026-05-01 13:30 35.22295 29.12412 29620 ft 398 kts 317°
2026-05-01 13:31 35.26676 29.08399 28504 ft 389 kts 317°
2026-05-01 13:31 35.33067 29.02527 26887 ft 377 kts 317°
2026-05-01 13:32 35.37227 28.98700 25820 ft 371 kts 317°
2026-05-01 13:33 35.43273 28.93126 24979 ft 360 kts 317°
2026-05-01 13:33 35.47179 28.89527 24935 ft 335 kts 316°
2026-05-01 13:34 35.50793 28.86188 24950 ft 326 kts 316°
2026-05-01 13:34 35.54394 28.82847 24967 ft 323 kts 316°
2026-05-01 13:35 35.57968 28.79532 24964 ft 316 kts 316°
2026-05-01 13:35 35.59692 28.77939 24957 ft 304 kts 316°
2026-05-01 13:35 35.62928 28.74949 24949 ft 279 kts 315°
2026-05-01 13:36 35.64462 28.73527 24950 ft 272 kts 315°
2026-05-01 13:36 35.65946 28.72149 24943 ft 262 kts 315°
2026-05-01 13:36 35.68780 28.69509 24958 ft 254 kts 314°
2026-05-01 13:37 35.70188 28.68192 24969 ft 255 kts 314°
2026-05-01 13:37 35.71603 28.66869 24972 ft 256 kts 314°
2026-05-01 13:37 35.73024 28.65541 24974 ft 257 kts 314°
2026-05-01 13:37 35.74447 28.64212 24970 ft 257 kts 314°
2026-05-01 13:38 35.77308 28.61542 24966 ft 258 kts 314°
2026-05-01 13:38 35.78740 28.60205 24967 ft 258 kts 314°
2026-05-01 13:38 35.80174 28.58867 24964 ft 258 kts 314°
2026-05-01 13:39 35.81604 28.57533 24965 ft 258 kts 314°
2026-05-01 13:39 35.83030 28.56201 24962 ft 257 kts 314°
2026-05-01 13:39 35.84453 28.54871 24961 ft 256 kts 314°
2026-05-01 13:39 35.85870 28.53545 24961 ft 255 kts 314°
2026-05-01 13:40 35.87285 28.52221 24959 ft 255 kts 314°
2026-05-01 13:40 35.88693 28.50904 24962 ft 254 kts 314°
2026-05-01 13:40 35.90100 28.49592 24798 ft 256 kts 314°
2026-05-01 13:40 35.91565 28.48212 24038 ft 274 kts 314°
2026-05-01 13:41 35.93153 28.46680 23347 ft 309 kts 314°
2026-05-01 13:41 35.94920 28.44918 22672 ft 337 kts 314°
2026-05-01 13:41 35.96770 28.43049 21644 ft 352 kts 314°
2026-05-01 13:41 35.98682 28.41092 20813 ft 360 kts 314°
2026-05-01 13:42 36.00610 28.39101 20085 ft 362 kts 314°
2026-05-01 13:42 36.02537 28.37103 19526 ft 361 kts 314°
2026-05-01 13:42 36.04447 28.35116 19027 ft 357 kts 314°
2026-05-01 13:42 36.06333 28.33147 18537 ft 353 kts 314°
2026-05-01 13:43 36.08202 28.31192 17975 ft 352 kts 314°
2026-05-01 13:43 36.10065 28.29236 17412 ft 351 kts 314°
2026-05-01 13:43 36.11915 28.27282 16907 ft 348 kts 314°
2026-05-01 13:43 36.13743 28.25343 16435 ft 345 kts 314°
2026-05-01 13:44 36.15551 28.23415 15935 ft 342 kts 314°
2026-05-01 13:44 36.17343 28.21490 15442 ft 340 kts 314°
2026-05-01 13:44 36.19117 28.19576 14963 ft 337 kts 314°
2026-05-01 13:44 36.21029 28.17881 14458 ft 342 kts 330°
2026-05-01 13:45 36.23350 28.17166 14167 ft 347 kts 353°
2026-05-01 13:45 36.25719 28.17613 14091 ft 346 kts 15°
2026-05-01 13:45 36.27803 28.19103 13826 ft 351 kts 36°
2026-05-01 13:45 36.29511 28.21242 13563 ft 347 kts 44°
2026-05-01 13:46 36.31115 28.23478 13163 ft 347 kts 45°
2026-05-01 13:46 36.32702 28.25716 12791 ft 344 kts 45°
2026-05-01 13:46 36.34012 28.28199 12398 ft 348 kts 64°
2026-05-01 13:46 36.34857 28.31003 12047 ft 346 kts 69°
2026-05-01 13:47 36.35613 28.33830 11671 ft 345 kts 70°
2026-05-01 13:47 36.36352 28.36650 11298 ft 343 kts 70°
2026-05-01 13:47 36.37084 28.39450 10948 ft 340 kts 70°
2026-05-01 13:47 36.37809 28.42213 10706 ft 333 kts 70°
2026-05-01 13:48 36.38524 28.44923 10447 ft 328 kts 70°
2026-05-01 13:48 36.39232 28.47593 10185 ft 323 kts 70°
2026-05-01 13:48 36.39934 28.50228 9824 ft 322 kts 70°
2026-05-01 13:48 36.40749 28.52797 9443 ft 319 kts 57°
2026-05-01 13:49 36.42219 28.54798 9064 ft 313 kts 32°
2026-05-01 13:49 36.44153 28.55842 8694 ft 306 kts
2026-05-01 13:49 36.46237 28.55797 8329 ft 297 kts 343°
2026-05-01 13:49 36.48113 28.54821 7959 ft 290 kts 322°
2026-05-01 13:50 36.49444 28.52996 7512 ft 279 kts 296°
2026-05-01 13:50 36.49987 28.50762 7076 ft 272 kts 278°
2026-05-01 13:50 36.50222 28.48425 6618 ft 267 kts 276°
2026-05-01 13:50 36.50406 28.46170 6175 ft 264 kts 275°
2026-05-01 13:51 36.50505 28.43915 5706 ft 261 kts 264°
2026-05-01 13:51 36.50145 28.41703 5222 ft 263 kts 256°
2026-05-01 13:51 36.49599 28.39525 4857 ft 264 kts 252°
2026-05-01 13:51 36.48977 28.37374 4503 ft 264 kts 251°
2026-05-01 13:52 36.48344 28.35255 4144 ft 259 kts 251°
2026-05-01 13:52 36.47723 28.33160 3824 ft 256 kts 251°
2026-05-01 13:52 36.47121 28.31114 3468 ft 249 kts 252°
2026-05-01 13:52 36.46538 28.29122 3141 ft 241 kts 252°
2026-05-01 13:53 36.45973 28.27194 2834 ft 234 kts 252°
2026-05-01 13:53 36.45075 28.24134 2322 ft 220 kts 251°
2026-05-01 13:53 36.44562 28.22384 2037 ft 212 kts 251°
2026-05-01 13:54 36.44069 28.20702 1748 ft 201 kts 251°
2026-05-01 13:54 36.43610 28.19135 1507 ft 185 kts 251°
2026-05-01 13:54 36.43190 28.17701 1288 ft 169 kts 251°
2026-05-01 13:54 36.42810 28.16398 1046 ft 153 kts 251°
2026-05-01 13:55 36.42455 28.15203 848 ft 145 kts 251°
2026-05-01 13:55 36.42131 28.14029 697 ft 145 kts 253°
2026-05-01 13:55 36.41777 28.12844 535 ft 148 kts 249°
2026-05-01 13:55 36.41416 28.11633 301 ft 151 kts 251°
2026-05-01 13:56 36.41068 28.10442 81 ft 143 kts 251°
2026-05-01 13:56 36.40749 28.09347 29 ft 118 kts 250°
2026-05-01 13:56 36.40561 28.08710 25 ft 33 kts 250°
2026-05-01 13:56 36.40480 28.08656 23 ft 14 kts 148°
2026-05-01 13:57 36.40431 28.08757 26 ft 13 kts 128°
2026-05-01 13:57 36.40401 28.08838 28 ft 10 kts 96°
2026-05-01 13:57 36.40395 28.08924 28 ft 10 kts 92°
2026-05-01 13:57 36.40402 28.09007 28 ft 10 kts 74°
2026-05-01 13:58 36.40423 28.09085 28 ft 9 kts 70°
2026-05-01 13:58 36.40445 28.09161 28 ft 9 kts 69°
2026-05-01 13:58 36.40428 28.09219 28 ft 9 kts 158°
2026-05-01 13:58 36.40404 28.09229 28 ft 0 kts 161°
2026-05-01 13:59 36.40403 28.09230 28 ft 0 kts 161°